Regional Weather Roundup
Issued by NWS

Home | Current Version | Previous Version | Text Only | Print | Product List | Glossary On
Versions: 1 2 3 4 5 6 7 8 9 10 11 12 13 14 15 16 17 18 19 20 21 22 23 24 25 26 27 28 29 30 31 32 33 34 35 36 37 38 39 40 41 42 43 44 45 46 47 48 49 50
000
ASUS44 KFWD 221815
RWRTX
NORTH TEXAS HOURLY WEATHER ROUNDUP
NATIONAL WEATHER SERVICE FORT WORTH TX
100 PM CDT SUN OCT 22 2017

NOTE: "FAIR" INDICATES FEW OR NO CLOUDS BELOW 12,000 FEET WITH NO
SIGNIFICANT WEATHER AND/OR OBSTRUCTIONS TO VISIBILITY.

TXZ118-119-221900-
DALLAS/FORT WORTH METROPLEX

CITY           SKY/WX    TMP DP  RH WIND       PRES   REMARKS
DFW AIRPORT    MOSUNNY   71  51  49 N14G22    30.15F
6HR MIN TEMP:  64; 6HR MAX TEMP:  71;

DALLAS LOVE    MOSUNNY   69  54  58 NW16G22   30.17S
6HR MIN TEMP:  63; 6HR MAX TEMP:  69;

FTW MEACHAM    SUNNY     72  48  42 N15       30.18S
6HR MIN TEMP:  62; 6HR MAX TEMP:  72;

DAL-EXECUTIVE  MOSUNNY   69  56  62 N15       30.16R
6HR MIN TEMP:  61; 6HR MAX TEMP:  70;

FTW-ALLIANCE   MOSUNNY   71  43  36 N20       30.18S
6HR MIN TEMP:  60; 6HR MAX TEMP:  71;

FTW-SPINKS     MOSUNNY   68  54  60 NW14G21   30.20R
ARLINGTON      MOSUNNY   69  53  56 NW15      30.17S
6HR MIN TEMP:  61; 6HR MAX TEMP:  70;

ADDISON        MOSUNNY   68  54  60 NW14G20   30.17S
MESQUITE       MOSUNNY   70  54  56 N13G18    30.16R
LANCASTER      MOSUNNY   68  58  70 NW14      30.17R
6HR MIN TEMP:  61; 6HR MAX TEMP:  69;

$$

TXZ091>094-102>105-117-120-121-131>134-221900-
NORTH CENTRAL TEXAS

CITY           SKY/WX    TMP DP  RH WIND       PRES   REMARKS
SHRMAN/DENISON SUNNY     67  51  56 NW18      30.18F
6HR MIN TEMP:  57; 6HR MAX TEMP:  67;

GAINESVILLE    SUNNY     68  43  40 N17G25    30.20S
6HR MIN TEMP:  56; 6HR MAX TEMP:  68;

BOWIE          SUNNY     68  41  37 N16G22    30.21S
6HR MIN TEMP:  53; 6HR MAX TEMP:  68;

BRIDGEPORT     SUNNY     68  45  43 N13G20    30.23F
6HR MIN TEMP:  57; 6HR MAX TEMP:  68;

DECATUR        SUNNY     69  43  39 N15G21    30.19F
6HR MIN TEMP:  56; 6HR MAX TEMP:  69;

DENTON         SUNNY     70  45  40 N18       30.17F
6HR MIN TEMP:  59; 6HR MAX TEMP:  70;

MCKINNEY       MOSUNNY   68  55  63 NW14      30.16F
6HR MIN TEMP:  60; 6HR MAX TEMP:  68;

BONHAM         MOSUNNY  N/A N/A N/A N12G18    30.16S
6HR MIN TEMP:  58; 6HR MAX TEMP:  60;

GREENVILLE     MOSUNNY   70  57  64 NW16      30.15R
ROCKWALL       PTSUNNY   66  56  70 N13G23    30.16R
6HR MIN TEMP:  61; 6HR MAX TEMP:  69;

TERRELL        MOSUNNY   69  54  58 NW14G24   30.14S
6HR MIN TEMP:  61; 6HR MAX TEMP:  72; 6HR PCP: TRACE;

WAXAHACHIE     MOSUNNY   71  55  56 NW20      30.17S
6HR MIN TEMP:  61; 6HR MAX TEMP:  71; 6HR PCP:  0.01;

CLEBURNE       MOSUNNY   68  57  68 N12G17    30.20S
GRANBURY       SUNNY     70  52  52 NW7G16    30.21F
6HR MIN TEMP:  60; 6HR MAX TEMP:  70;

$$

TXZ083>090-098>101-113>116-127>130-139>142-154-155-221900-
WESTERN NORTH TEXAS

CITY           SKY/WX    TMP DP  RH WIND       PRES   REMARKS
WICHITA FALLS  SUNNY     68  44  42 N7        30.23F
6HR MIN TEMP:  51; 6HR MAX TEMP:  68;

WF-KICKAPOO    SUNNY     67  42  39 N12G22    30.26F
6HR MIN TEMP:  55; 6HR MAX TEMP:  67;

VERNON         SUNNY     67  33  27 NE5       30.26F
6HR MIN TEMP:  49; 6HR MAX TEMP:  67;

ABILENE        SUNNY     66  42  41 NE8       30.27F
6HR MIN TEMP:  47; 6HR MAX TEMP:  67;

ABILENE-DYESS  SUNNY     68  41  37 N10G16    30.27S
6HR MIN TEMP:  48; 6HR MAX TEMP:  68;

GRAHAM           N/A     69  44  41 NW12G18   30.22S
6HR MIN TEMP:  52; 6HR MAX TEMP:  69;

BRECKENRIDGE   SUNNY     69  46  43 N9        30.24S HAZE
6HR MIN TEMP:  53; 6HR MAX TEMP:  69;

CISCO          SUNNY     66  41  39 N13       30.26S
EASTLAND       SUNNY     67  45  45 N13       30.23F
6HR MIN TEMP:  52; 6HR MAX TEMP:  67;

RANGER         SUNNY     66  48  51 N10G18    30.23S
6HR MIN TEMP:  54; 6HR MAX TEMP:  66;

MINERAL WELLS  SUNNY     70  42  36 N16G24    30.20S
6HR MIN TEMP:  57; 6HR MAX TEMP:  71;

STEPHENVILLE   SUNNY     68  47  47 N13G20    30.24S
6HR MIN TEMP:  57; 6HR MAX TEMP:  68;

COMANCHE       SUNNY     67  54  62 N8        30.23F
6HR MIN TEMP:  55; 6HR MAX TEMP:  67;

COLEMAN        SUNNY     71  38  30 N10G20    30.25S
6HR MIN TEMP:  53; 6HR MAX TEMP:  71;

$$

TXZ143>147-156>162-174-175-221900-
CENTRAL TEXAS

CITY           SKY/WX    TMP DP  RH WIND       PRES   REMARKS
WACO           MOSUNNY   73  58  59 NW12G18   30.16F
6HR MIN TEMP:  61; 6HR MAX TEMP:  73;

WACO-TSTC      MOSUNNY   73  57  56 NW12G17   30.16F
WACO-MCGREGOR  MOSUNNY   70  60  70 NW8G16    30.17F
6HR MIN TEMP:  61; 6HR MAX TEMP:  70;

CORSICANA      MOSUNNY   73  56  54 N13       30.15S
6HR MIN TEMP:  61; 6HR MAX TEMP:  73; 6HR PCP: TRACE;

MEXIA          PTSUNNY   71  58  64 W14G22    30.14F
6HR MIN TEMP:  60; 6HR MAX TEMP:  72; 6HR PCP:  0.01;

HEARNE         CLOUDY    68  62  80 W9        30.16F
6HR MIN TEMP:  60; 6HR MAX TEMP:  68; 6HR PCP:  0.24;

CAMERON        PTSUNNY   71  59  66 N8        30.16S
6HR MIN TEMP:  61; 6HR MAX TEMP:  71; 6HR PCP:  0.05;

TEMPLE         PTSUNNY   69  60  73 NW14      30.18F
6HR MIN TEMP:  61; 6HR MAX TEMP:  69; 6HR PCP:  0.01;

KILLEEN        MOSUNNY   68  57  68 NW14      30.18F
6HR MIN TEMP:  59; 6HR MAX TEMP:  68;

KILLEEN-SKYLRK PTSUNNY   68  58  70 N9        30.19F
6HR MIN TEMP:  61; 6HR MAX TEMP:  69; 6HR PCP: TRACE;

FORT HOOD      PTSUNNY   67  58  72 N12       30.15F
6HR MIN TEMP:  58; 6HR MAX TEMP:  67; 6HR PCP:  0.01;

GATESVILLE     MOSUNNY   70  57  64 NW10      30.20F
HAMILTON       MOSUNNY   69  56  64 N12       30.21F
6HR MIN TEMP:  58; 6HR MAX TEMP:  69; 6HR PCP:  0.01;

LAMPASAS       SUNNY     71  60  69 N9        30.19F
6HR MIN TEMP:  58; 6HR MAX TEMP:  71;

$$

TXZ095>097-106>112-122>126-135>138-148>153-164>167-221900-
EAST TEXAS

CITY           SKY/WX    TMP DP  RH WIND       PRES   REMARKS
PARIS          CLOUDY    62  56  80 N14       30.14R
6HR MIN TEMP:  58; 6HR MAX TEMP:  64;

SULPHUR SPRNGS PTSUNNY   66  57  73 N18G24    30.15R
6HR MIN TEMP:  60; 6HR MAX TEMP:  69; 6HR PCP:  0.02;

MOUNT PLEASANT PTSUNNY   65  59  79 NW9       30.12S
6HR MIN TEMP:  59; 6HR MAX TEMP:  65; 6HR PCP:  0.05;

GILMER         CLOUDY    64  57  78 NW7G16    30.11S
6HR MIN TEMP:  58; 6HR MAX TEMP:  65; 6HR PCP:  0.11;

MINEOLA        MOSUNNY   70  57  64 NW13G20   30.13R
TYLER          CLOUDY    69  58  67 NW9       30.11S
6HR MIN TEMP:  60; 6HR MAX TEMP:  69; 6HR PCP:  0.09;

LONGVIEW       PTSUNNY   67  61  81 N12G17    30.09S
6HR MIN TEMP:  60; 6HR MAX TEMP:  68; 6HR PCP:  0.34;

MARSHALL       CLOUDY    65  60  84 NW7       30.10S
ATHENS         PTSUNNY   68  55  64 NW7G16    30.12S
PALESTINE      PTSUNNY   68  62  80 NW7       30.15S
JACKSONVILLE   CLOUDY    65  61  85 W7        30.15R
HENDERSON      CLOUDY    65  58  78 NW6       30.12S
6HR MIN TEMP:  59; 6HR MAX TEMP:  65; 6HR PCP:  0.28;

CENTER         CLOUDY    66  63  90 MISG      30.11S
6HR MIN TEMP:  63; 6HR MAX TEMP:  66; 6HR PCP:  0.50;

NACOGDOCHES    CLOUDY    63  59  87 W8        30.13S
6HR MIN TEMP:  59; 6HR MAX TEMP:  63; 6HR PCP:  0.34;

LUFKIN         CLOUDY    63  60  90 NW3       30.11R
6HR MIN TEMP:  59; 6HR MAX TEMP:  63; 6HR PCP:  0.49;

$$

SUPPLEMENTAL OBSERVATIONS (NWS FORT WORTH AREA)

CITY           SKY/WX    TMP DP  RH WIND       PRES   REMARKS
DENISON DAM      N/A     64  46  52 N16         N/A
CADDO GRASSLND   N/A     70  57  64 NE5G13      N/A
PAT MAYSE LAKE   N/A     63  55  77 NW14        N/A
GREENVILLE       N/A     64  55  72 N14G22      N/A
CEDAR HILL       N/A     72  52  49 VRB7G16     N/A
LBJ GRASSLAND    N/A     70  43  37 N12         N/A



USA.gov is the U.S. government's official web portal to all federal, state and local government web resources and services.